This demonstration page uses our WeatherBlox Daily Observations layout. Learn more.

Left ArrowRight Arrow

Hourly Observations for September 1, 2020

Temp ( °F °C ) Dew Point ( °F °C ) Humidity (%) Winds ( mph kmh ) Pressure ( in mb ) Visibility ( mi km ) Precip ( " mm )
12:59 am 00:59 Cloudy 78 25.6 72 22.2 82 82 ENE 8 13 30.00 1016 10 16 0.00 0.00
1:59 am 01:59 Cloudy 78 25.6 72 22.2 82 82 E 7 11 29.99 1016 10 16 0.00 0.00
2:59 am 02:59 Cloudy 78 25.6 72 22.2 82 82 E 9 15 29.98 1015 10 16 0.00 0.00
3:59 am 03:59 Mostly Cloudy 78 25.6 72 22.2 82 82 E 8 13 29.97 1015 10 16 0.00 0.00
4:59 am 04:59 Mostly Cloudy 78 25.6 73 22.8 85 85 E 9 15 29.97 1015 10 16 0.00 0.00
5:59 am 05:59 Mostly Cloudy 78 25.6 74 23.3 87 87 E 9 15 29.98 1015 10 16 0.00 0.00
6:59 am 06:59 Mostly Cloudy 78 25.6 74 23.3 87 87 E 13 20 29.99 1016 9 14 0.00 0.00
7:59 am 07:59 Sunny 79 26.1 75 23.9 88 88 E 9 15 30.00 1016 9 14 0.00 0.00
8:59 am 08:59 Mostly Cloudy 80 26.7 75 23.9 85 85 E 14 22 30.01 1016 9 14 0.00 0.00
9:59 am 09:59 Mostly Cloudy 81 27.2 75 23.9 82 82 E 13 20 30.01 1016 9 14 0.00 0.00
10:59 am 10:59 Mostly Cloudy 84 28.9 76 24.4 77 77 ENE 12 19 30.02 1017 10 16 0.00 0.00
11:59 am 11:59 Mostly Cloudy 82 27.8 76 24.4 82 82 E 14 22 30.03 1017 9 14 0.00 0.00
12:59 pm 12:59 Mostly Cloudy 82 27.8 74 23.3 77 77 ENE 14 22 30.02 1017 9 14 0.00 0.00
1:59 pm 13:59 Mostly Cloudy 81 27.2 73 22.8 77 77 ENE 14 22 30.01 1016 8 13 0.00 0.00
2:59 pm 14:59 Mostly Cloudy 81 27.2 74 23.3 79 79 ENE 13 20 29.99 1016 8 13 0.00 0.00
3:59 pm 15:59 Mostly Cloudy 81 27.2 74 23.3 79 79 ENE 13 20 30.00 1016 8 13 0.00 0.00
4:59 pm 16:59 Cloudy with Light Rain 79 26.1 75 23.9 88 88 E 12 19 30.01 1016 6 10 0.00 0.00
5:59 pm 17:59 Cloudy 79 26.1 75 23.9 88 88 E 10 17 30.00 1016 7 11 0.00 0.00
6:59 pm 18:59 Mostly Cloudy 79 26.1 74 23.3 85 85 E 9 15 29.99 1016 7 11 0.00 0.00
7:59 pm 19:59 Mostly Cloudy 78 25.6 74 23.3 87 87 E 7 11 30.00 1016 7 11 0.00 0.00
8:49 pm 20:49 Mostly Cloudy 78 25.6 74 23.3 87 87 E 7 11 30.01 1016 7 11 0.00 0.00
8:59 pm 20:59 Mostly Cloudy 78 25.6 74 23.3 87 87 E 7 11 30.01 1016 7 11 0.00 0.00
9:43 pm 21:43 Mostly Cloudy 78 25.6 74 23.3 87 87 E 9 15 30.02 1017 8 13 0.00 0.00
9:59 pm 21:59 Cloudy 78 25.6 74 23.3 87 87 E 7 11 30.03 1017 8 13 0.00 0.00
10:59 pm 22:59 Cloudy 78 25.6 74 23.3 87 87 E 6 9 30.04 1017 8 13 0.00 0.00
11:59 pm 23:59 Cloudy 78 25.6 73 22.8 85 85 ENE 6 9 30.03 1017 8 13 0.00 0.00

Powered by AerisWeather